Lid_Strength_Index
-1 -1 -1 -1 -1 -1 -0 -0 -1 -0 -1 -1 -1 -1 -1 -0 0 3 5 3 4 6 7 6 6 8 9 9 12 10 11 9 10 13 13 13 13 12 14 13 15 15 16 16 15 16 17 8 8 11 9 7 8 7
-1 -1 -1 -1 -1 -0 -1 -1 -1 -0 -1 -1 -1 -0 -1 -0 0 2 5 3 2 6 7 5 5 5 5 6 10 11 12 10 9 11 11 11 13 12 14 16 10 14 12 14 14 14 9 8 9 7 7 8 7 7
-0 -0 -0 -0 -1 -1 -1 -1 -1 -1 -1 -1 -0 -0 -0 -0 0 1 4 5 4 6 7 7 7 5 4 5 5 11 11 9 9 7 10 10 13 11 15 14 12 10 9 12 12 10 9 8 7 6 6 7 7 6
-0 -0 -1 -0 -1 -1 -1 -1 -0 -1 -0 -0 -0 -0 -0 -0 0 1 4 5 6 6 8 7 4 5 4 6 6 6 9 9 8 8 10 10 12 10 12 11 12 10 9 11 12 9 8 7 6 6 6 5 6 6
-1 -0 -0 -0 -1 -1 -0 -1 -0 -0 -0 -0 -0 -0 -0 -0 0 2 5 5 3 5 9 8 6 4 5 6 7 6 8 9 9 10 10 11 9 9 10 10 12 9 11 12 13 9 8 8 6 6 7 7 7 7
-1 -0 -0 -0 -1 -0 -0 -0 -0 0 0 -1 -1 -0 -0 -0 1 6 5 5 3 4 9 11 7 6 7 6 6 8 8 9 8 10 10 10 9 9 12 13 9 8 7 7 9 6 6 6 7 6 7 7 7 7
-1 -0 -0 -0 -0 -0 -0 0 0 0 -0 -0 -0 -0 -0 0 4 8 7 4 2 4 8 9 9 7 6 6 6 8 8 9 9 10 11 11 11 11 12 13 11 10 7 6 6 8 9 8 8 7 7 6 6 7
-1 -0 0 -0 -0 -0 -0 0 0 0 -0 -0 0 -0 0 1 3 5 3 2 3 6 8 11 10 9 7 8 8 7 9 9 9 10 10 11 8 9 12 9 9 9 9 9 9 8 8 7 8 8 8 7 7 8
-1 0 0 0 0 0 0 0 0 0 0 0 0 0 4 5 7 4 0 1 5 6 9 9 11 11 8 9 8 7 8 10 8 11 10 8 10 12 10 9 9 8 9 9 9 8 7 8 7 7 7 7 8 7
-1 0 0 0 -0 0 0 0 1 1 1 1 4 6 7 4 -1 2 5 7 7 7 8 10 8 11 9 9 9 9 9 10 11 12 7 10 11 7 8 8 7 7 7 7 7 8 7 7 7 7 7 6 7 7
-0 0 1 -0 -0 0 0 0 1 1 2 5 5 6 3 1 6 7 9 9 8 9 8 9 9 11 8 9 9 9 10 10 11 12 11 12 12 9 7 6 6 6 5 6 6 6 7 7 6 6 6 6 6 7
-0 0 -0 -0 0 0 0 1 1 3 3 3 3 3 4 6 9 10 11 9 9 10 9 9 9 9 8 7 8 8 10 10 12 8 12 14 10 8 7 6 6 6 5 5 4 5 5 4 4 5 5 5 5 5
-0 -0 -0 -0 0 0 1 1 1 1 1 2 5 7 8 9 14 12 13 11 11 9 9 9 9 9 8 8 9 9 10 11 8 12 13 11 8 6 7 6 6 5 4 4 5 4 4 4 4 4 4 4 4 5
-0 -0 -0 -0 -0 0 1 1 1 1 3 6 8 11 11 11 10 10 10 10 7 7 8 8 8 8 8 9 9 10 10 9 13 15 14 10 8 7 7 6 6 6 6 5 5 4 4 4 4 4 4 4 4 5
-0 -0 -0 0 -0 0 1 1 1 2 6 8 7 12 10 7 7 7 6 7 6 6 8 8 8 8 9 10 9 10 12 14 13 13 10 8 8 8 8 6 6 6 5 5 5 5 4 4 4 5 4 4 4 5
-0 1 1 -0 0 1 1 2 4 4 5 6 7 9 7 8 8 7 7 7 6 7 7 8 9 10 10 10 11 13 13 14 12 10 8 7 7 6 6 6 6 5 5 5 5 5 4 4 5 4 4 4 4 5
1 4 0 0 1 1 1 4 5 5 6 7 8 6 7 7 8 8 8 7 6 7 10 9 11 12 9 11 13 11 12 10 8 7 7 7 7 6 6 5 4 4 5 5 5 5 5 4 4 5 5 5 5 5
4 3 -0 0 1 3 5 5 5 6 8 7 8 8 7 7 7 7 7 6 6 8 8 10 8 11 13 13 13 9 8 8 7 7 6 6 6 6 5 6 5 5 5 5 5 5 5 6 6 6 6 5 5 5
3 2 1 0 2 5 5 5 5 8 8 7 7 7 8 8 7 7 7 7 7 7 7 8 10 11 11 9 9 8 8 8 7 7 6 5 6 5 5 5 5 5 5 6 5 6 6 6 6 6 5 5 5 5
1 1 0 0 1 6 7 7 5 8 9 8 6 7 8 8 8 7 7 6 7 8 8 9 10 8 8 7 7 7 6 6 7 7 6 6 5 5 5 5 5 6 6 6 6 7 7 7 6 6 5 5 5 5
2 2 1 2 5 5 7 7 8 8 8 8 8 8 8 7 8 8 9 7 8 10 9 8 7 7 6 6 6 6 5 6 6 6 6 6 5 6 5 4 4 5 5 5 6 5 7 7 6 6 5 4 4 4
4 1 4 4 6 7 8 7 8 8 8 8 8 8 9 9 10 10 8 9 9 8 8 7 7 7 7 6 5 4 4 4 5 4 5 5 5 5 5 5 5 5 5 5 5 5 6 7 7 6 6 6 6 5
4 5 7 6 9 10 10 7 7 8 10 9 8 9 9 9 9 8 10 9 9 8 8 7 6 6 5 4 4 4 3 4 4 5 5 5 4 4 4 4 5 7 7 8 7 7 7 7 6 6 6 6 6 6
6 10 11 10 9 11 9 9 8 8 8 9 10 11 9 9 7 8 10 8 8 6 5 5 4 5 4 4 5 5 4 4 5 4 4 5 5 7 7 8 8 8 8 8 8 8 7 7 8 7 7 7 7 8
11 11 12 13 11 11 11 10 10 10 11 10 11 10 10 8 10 10 10 8 6 6 5 4 5 5 6 5 5 5 4 4 5 5 6 5 7 8 9 9 9 8 8 9 9 9 9 8 8 8 8 8 9 8
13 11 13 11 11 11 10 11 11 11 10 10 9 8 8 9 11 11 9 7 6 5 6 6 5 5 6 5 5 5 6 6 6 7 8 8 8 9 10 10 10 10 9 10 10 10 9 9 9 9 9 8 8 6
12 10 10 9 8 9 9 7 9 10 10 10 10 9 9 11 11 8 6 4 5 4 4 3 3 4 7 7 7 8 8 8 7 8 8 9 9 9 9 10 11 10 9 9 9 9 9 9 9 9 9 7 7 7
8 8 10 9 9 8 9 9 9 10 9 7 8 10 10 10 10 6 5 4 4 4 5 5 6 6 7 7 8 8 8 8 7 8 9 9 10 10 10 10 10 9 10 9 9 9 9 9 9 9 8 7 8 7
8 6 7 9 8 8 8 8 8 8 7 7 8 9 8 6 5 4 5 6 6 6 7 7 7 7 7 7 7 8 8 8 9 10 11 11 11 10 10 10 10 10 10 9 8 8 8 9 9 9 9 8 7 8
8 6 7 7 9 9 7 7 7 6 6 6 6 6 6 4 4 4 4 6 7 8 8 8 8 8 9 9 9 8 8 9 9 10 11 11 11 10 10 10 10 10 9 9 9 9 8 9 9 9 9 9 10 10
6 7 7 8 8 7 6 6 6 5 5 5 5 6 7 6 6 5 5 6 7 7 8 8 9 9 9 9 10 10 10 9 9 10 10 10 10 10 10 10 10 10 10 9 10 10 10 10 10 10 10 10 9 9
6 8 8 9 8 6 5 6 6 6 5 6 6 5 5 6 8 6 4 5 6 8 8 8 9 9 8 8 9 9 9 10 9 10 10 10 10 10 10 10 10 9 10 10 10 10 10 10 10 10 11 10 10 10
7 7 7 7 8 7 7 6 7 8 7 7 7 6 7 8 9 5 3 3 6 8 9 9 9 8 9 9 9 9 9 9 10 9 9 10 10 10 10 10 9 10 10 11 11 12 12 12 11 12 11 11 11 10